Location: Newark
(58.8333°N, 23.5833°E)
Time: 11:05:16
(UTC+00:00)

A-11 Canister half - Pass Details

Date: 22 November 2019
Orbit: 1515 x 1685 km, 47.2° (Epoch: 05 December)

Event Time Altitude Azimuth Distance (km) Brightness Sun altitude
Rises 14:55:45 0° 204° (SSW) 4,871 12.5 -7.9°
Reaches altitude 10° 14:59:36 10° 192° (SSW) 3,908 11.7 -8.3°
Maximum altitude 15:07:08 25° 142° (SE) 2,923 10.3 -9.2°
Drops below altitude 10° 15:14:44 10° 93° (E) 3,954 10.6 -10.1°
Enters shadow 15:15:28 - 91° (E) 4,124 10.7 -10.2°
Sets 15:18:38 0° 82° (E) 4,941 - -10.6°
